Theta_e
325 324 324 329 330 332 338 340 341 340 340 337 339 340 347 345 344 344 341 338 333 331 331 331 329 329 327 326 324 321 320 322 322 321 321 321 322 322 321 321 321 320 318 317
324 324 325 326 333 335 337 338 337 337 339 334 338 343 345 345 344 343 341 340 335 332 331 331 329 328 328 327 325 323 319 322 322 322 321 322 323 323 321 321 320 320 319 318
325 325 327 329 336 339 332 332 338 338 339 339 338 339 349 345 343 341 339 340 339 335 333 330 330 329 329 327 326 325 320 317 321 323 323 322 325 324 321 321 321 320 319 318
324 325 327 332 334 332 334 332 334 339 337 341 338 338 346 347 347 343 340 340 338 337 334 331 331 330 329 328 327 326 321 321 321 324 322 323 322 323 321 321 320 322 319 318
326 326 325 329 333 333 333 333 336 339 339 337 341 343 346 345 345 344 342 336 337 336 335 333 331 331 331 329 327 326 323 323 320 322 323 323 322 322 322 321 322 321 319 318
324 325 327 328 332 333 335 339 334 336 338 345 339 340 345 343 340 340 340 338 337 338 336 334 333 332 332 331 328 326 324 322 321 320 321 321 321 321 321 323 320 321 319 319
325 327 330 333 333 331 331 331 333 334 340 346 340 343 339 340 338 339 337 337 338 338 337 335 334 333 332 330 328 326 325 324 323 322 323 323 322 322 322 323 323 320 321 320
325 326 332 333 332 333 333 331 333 340 341 337 340 341 338 334 335 334 334 333 336 336 338 337 334 333 331 330 329 327 325 325 324 322 322 323 323 321 322 322 319 320 321 320
325 326 331 333 333 332 334 337 333 334 333 332 334 337 336 337 337 337 334 333 332 332 336 337 334 333 331 330 330 328 326 325 325 323 322 323 322 322 321 321 321 319 318 318
325 328 333 333 334 333 332 333 334 336 339 338 338 336 338 336 339 337 333 334 334 336 334 333 333 332 331 333 331 328 327 326 325 323 322 322 322 322 322 321 321 320 320 319
325 327 328 332 333 333 334 338 338 336 335 339 342 334 332 335 334 336 334 334 333 338 338 337 336 335 332 332 329 327 327 326 325 324 323 323 322 322 322 321 321 321 321 321
332 329 335 334 331 331 333 335 334 338 340 336 336 336 335 333 335 332 335 334 336 337 337 336 335 335 334 332 330 327 327 325 325 324 323 323 322 322 322 322 322 322 322 321
333 335 334 333 331 332 334 332 336 334 333 337 336 335 338 336 335 333 333 333 334 336 335 336 335 335 334 332 330 328 326 325 324 324 323 323 322 322 322 322 322 322 322 322
332 332 331 333 331 331 332 333 335 332 335 336 335 333 339 339 336 335 333 330 330 332 335 333 334 333 334 333 331 329 325 324 324 324 323 323 322 322 322 322 322 323 323 323
329 331 335 334 334 334 335 333 333 337 336 337 334 334 335 338 334 335 332 330 332 332 335 333 334 334 334 332 331 330 326 325 324 323 323 322 322 322 322 322 322 322 322 322
332 328 336 337 339 338 336 333 334 333 335 336 338 341 338 338 335 335 334 334 333 331 331 332 330 334 333 331 331 329 326 324 322 322 322 321 322 321 322 322 322 322 321 321
340 336 339 339 338 334 333 334 336 340 339 335 341 339 338 339 336 334 333 332 332 329 331 333 331 330 332 331 329 327 324 324 324 324 324 323 322 322 322 322 322 321 321 321
341 343 336 337 335 338 331 336 338 342 342 339 339 338 336 334 333 331 330 331 331 335 333 331 331 331 332 331 330 327 326 326 325 325 325 323 322 322 321 321 322 321 321 322
330 334 334 333 336 336 337 336 336 339 338 338 339 337 335 333 332 333 331 327 331 332 334 333 333 332 332 331 330 328 328 327 326 325 324 323 322 321 321 320 321 321 322 324
335 332 331 338 339 340 336 339 336 334 336 335 336 338 336 334 336 334 330 331 331 334 334 332 332 331 331 330 329 326 323 323 322 322 321 321 322 322 322 323 324 326 327 323
338 335 335 337 338 337 338 338 335 338 340 340 334 335 338 338 332 330 329 329 333 334 334 332 331 330 329 327 325 326 330 330 329 330 330 329 329 329 326 321 317 318 319 316
338 338 342 340 339 340 337 338 339 339 339 338 335 336 339 335 332 333 330 329 330 332 333 331 330 328 326 326 325 325 329 330 330 328 320 317 316 314 314 314 316 314 313 315
334 337 337 337 335 336 338 339 338 336 335 334 333 333 334 337 334 333 331 328 327 332 332 330 327 325 324 328 327 325 324 323 320 316 315 313 312 312 313 315 312 313 312 316
335 336 339 334 335 336 338 339 333 333 333 333 332 332 336 334 334 335 330 329 328 329 329 326 326 329 327 322 319 317 318 317 314 315 312 311 312 313 312 311 312 312 314 313
335 334 336 338 335 334 333 334 333 333 333 331 335 338 334 335 334 332 331 330 329 329 329 330 328 325 320 317 316 313 311 315 314 311 310 310 312 310 310 311 311 312 315 312
333 335 337 335 336 339 332 330 333 336 335 330 337 336 335 334 333 332 330 331 331 330 330 327 322 317 316 315 314 309 307 313 314 312 309 310 311 311 311 312 312 311 310 309
Wind_Speed
5 4 8 12 11 6 7 2 4 8 6 3 6 8 16 17 14 10 12 14 13 15 17 23 28 25 21 17 14 12 15 10 6 6 7 9 6 10 9 6 2 4 6 8
6 6 14 13 9 8 6 6 7 7 6 6 6 8 13 16 19 18 16 15 14 11 11 20 25 28 26 22 17 13 12 13 10 7 5 4 4 2 12 6 4 1 3 5
4 11 18 3 4 4 6 8 3 4 3 4 2 5 4 1 6 8 10 15 13 16 17 16 23 27 29 27 23 17 13 14 14 9 6 4 5 7 13 6 6 6 2 2
6 4 11 6 2 4 2 2 6 4 2 2 3 2 4 6 9 10 12 13 9 14 17 19 23 23 30 30 23 16 13 13 14 11 8 5 5 4 5 2 2 4 8 2
11 8 9 7 5 4 5 5 3 4 5 3 5 4 5 2 12 14 9 10 10 15 18 19 25 28 30 28 25 20 14 14 13 13 10 7 6 5 4 0 4 4 10 3
9 2 4 5 4 4 6 2 9 5 3 3 3 4 4 5 9 5 10 16 13 15 15 19 25 24 23 27 26 22 18 15 13 13 10 8 6 4 6 1 2 6 9 3
7 5 8 2 6 5 6 7 4 5 5 4 5 1 7 5 11 16 15 9 18 15 18 15 19 21 28 32 30 27 23 19 15 13 11 9 6 5 5 7 7 4 7 8
1 12 1 4 3 3 6 6 4 2 3 3 5 3 4 6 7 6 8 5 7 14 17 17 22 26 29 33 32 30 26 22 18 15 14 13 8 7 5 5 5 5 3 4
4 7 5 4 4 3 3 4 3 5 4 2 3 5 1 4 6 7 9 18 11 8 4 16 21 26 27 31 37 34 30 25 21 18 16 16 10 8 10 8 6 7 7 7
7 3 4 4 7 10 6 3 3 4 2 4 5 4 4 5 6 4 13 5 7 4 7 7 6 10 18 34 40 34 31 27 22 19 19 18 13 12 11 10 11 9 11 11
6 6 9 3 0 7 1 2 5 4 5 4 3 6 6 5 8 4 7 4 5 3 8 11 13 11 16 32 28 31 29 26 21 23 22 20 15 15 13 14 14 13 12 12
2 5 3 4 7 4 5 6 6 5 4 2 4 6 6 5 6 8 3 3 7 7 8 8 12 22 19 27 19 27 27 23 23 23 23 22 16 17 16 14 16 14 15 14
1 3 3 6 7 4 3 3 4 5 3 5 5 6 1 3 3 1 4 7 3 5 7 7 14 24 23 10 13 21 22 24 20 22 23 20 18 19 18 17 16 16 16 17
8 3 6 6 6 3 5 11 8 5 4 4 6 6 6 3 1 5 5 2 9 5 6 6 7 14 19 12 15 24 23 17 14 21 21 20 19 19 19 17 18 18 17 17
5 2 1 4 5 2 6 8 6 6 5 7 5 6 3 4 7 6 4 5 5 1 5 6 4 5 13 9 20 23 21 14 11 11 16 17 16 15 16 18 17 18 18 19
3 2 1 4 4 6 3 6 13 8 4 2 8 4 4 2 1 5 3 5 7 7 10 7 7 12 11 16 21 23 18 14 11 6 5 6 8 12 17 19 20 21 21 22
2 3 3 4 4 5 5 5 2 3 6 3 5 6 5 3 7 6 7 6 6 8 9 7 4 16 21 25 23 23 19 13 10 8 7 7 9 13 15 19 21 23 24 24
6 4 4 3 4 3 6 4 2 9 5 4 5 8 9 6 6 5 6 5 5 4 5 5 9 17 24 24 20 15 12 12 11 11 11 11 12 14 17 17 18 21 23 24
4 4 2 3 3 4 5 4 4 4 3 1 5 4 3 3 2 4 4 5 5 6 9 13 14 17 15 14 12 10 8 9 10 12 13 14 14 15 16 16 16 18 22 25
5 5 4 2 3 4 4 4 3 2 4 7 3 4 8 8 1 5 5 6 6 16 20 21 21 20 18 15 13 9 9 7 7 7 8 10 13 15 16 17 18 18 17 18
3 3 4 2 3 6 4 3 2 5 6 11 6 6 8 9 7 5 7 6 18 22 23 23 21 20 15 12 11 14 15 18 16 15 15 16 17 18 18 18 18 19 22 22
0 1 2 2 2 2 7 5 5 4 2 2 16 16 13 17 6 4 7 8 13 17 23 24 20 17 14 12 12 8 14 13 12 15 17 19 20 20 19 21 23 23 24 23
3 3 3 3 4 4 4 6 6 7 9 6 6 8 12 16 6 8 7 8 12 21 22 21 21 19 17 16 17 18 13 14 15 18 19 19 19 20 24 24 22 23 25 23
2 2 3 2 4 5 4 4 7 7 7 9 5 8 8 14 2 4 7 6 7 14 15 24 26 21 18 17 18 16 15 14 16 18 18 18 23 24 23 22 22 23 23 24
4 3 4 2 5 5 8 7 7 8 8 4 1 4 12 6 8 10 10 11 14 18 20 26 23 20 18 15 15 14 13 12 16 16 18 21 23 22 20 19 20 24 21 25
4 6 4 6 9 7 7 8 11 4 5 4 4 6 0 15 12 18 12 15 18 19 23 23 20 18 14 13 14 15 13 12 13 13 16 19 18 18 18 20 21 22 24 24
Wind_Direction
342 21 279 224 202 189 183 321 158 263 214 107 267 251 191 192 206 215 208 193 185 191 186 176 179 179 176 178 174 164 170 179 180 173 150 157 170 186 174 165 135 67 56 51
4 294 269 279 184 213 171 174 218 250 93 137 215 253 191 195 205 211 204 204 188 178 167 176 179 182 185 184 185 176 173 179 175 167 165 186 249 278 189 179 191 169 48 51
150 264 304 243 145 212 250 131 211 186 97 32 299 35 77 7 335 296 264 213 201 177 179 181 186 187 190 190 188 184 175 172 183 183 193 215 244 185 172 182 209 201 184 65
261 289 345 14 288 146 55 164 168 165 97 7 354 316 19 337 292 289 267 239 205 191 188 180 187 196 193 197 192 185 180 176 176 179 180 180 138 147 160 236 285 221 187 159
276 283 323 252 251 152 207 134 122 83 85 96 2 77 277 155 260 250 262 236 214 195 185 187 191 200 196 197 194 190 186 188 180 185 186 176 182 178 195 47 348 157 181 164
250 42 247 237 1 59 122 144 36 52 55 30 243 157 234 183 230 297 258 222 204 195 194 195 194 194 181 197 197 194 192 194 188 181 183 199 212 224 222 301 100 175 188 183
335 325 321 342 20 14 87 46 356 1 1 232 228 53 249 216 235 233 239 247 209 183 191 188 188 176 181 189 199 200 196 198 193 188 186 196 213 214 241 274 241 213 198 225
126 316 83 279 162 182 78 116 154 353 314 289 272 284 272 219 229 247 4 354 184 182 189 190 185 180 183 188 204 204 202 201 197 195 197 203 217 229 247 211 262 240 263 262
162 255 299 276 66 76 16 44 251 110 160 14 232 281 235 302 324 323 14 41 26 16 283 183 188 186 180 184 210 207 204 202 202 203 200 203 213 224 223 241 258 260 269 276
213 283 218 267 77 12 120 170 13 17 343 323 287 295 251 262 266 309 51 30 10 51 109 72 21 216 178 201 214 209 206 200 205 206 208 207 216 223 233 235 246 264 272 268
163 140 274 13 57 173 64 52 44 112 139 190 309 283 238 193 214 232 90 348 24 112 109 128 160 296 229 216 224 206 207 198 202 212 213 213 218 222 236 242 249 258 270 265
159 147 150 193 306 197 159 161 150 128 227 189 150 276 343 8 72 113 152 121 62 128 82 98 149 237 251 232 233 211 206 199 210 215 219 220 221 221 232 251 254 263 270 270
196 18 52 360 351 357 275 191 135 128 109 186 144 261 159 79 66 177 163 166 182 204 197 176 171 204 211 201 217 216 210 209 217 220 222 225 227 222 239 256 260 267 271 272
88 107 146 179 211 188 301 307 200 148 112 180 227 280 209 199 131 324 316 107 193 210 217 198 191 177 186 210 211 212 211 213 226 234 227 231 233 239 250 261 262 263 266 274
95 129 173 212 237 5 352 328 244 201 183 169 220 199 270 186 194 233 278 316 306 216 248 247 204 201 194 197 205 214 210 204 230 217 226 240 243 244 254 259 265 270 270 275
13 250 91 328 357 7 327 300 57 31 316 351 72 0 293 81 50 264 231 286 291 285 289 261 204 202 203 187 192 199 196 191 194 201 236 257 257 261 261 262 265 265 273 280
132 120 75 279 356 10 355 339 51 92 88 71 175 195 165 169 235 246 258 228 247 257 275 293 3 173 176 179 184 195 192 202 209 220 250 273 274 286 289 276 271 271 276 285
157 140 131 220 39 16 245 322 31 108 54 350 92 146 176 173 245 231 221 209 213 134 60 48 109 146 170 173 180 179 193 206 212 230 250 262 270 279 288 293 288 283 284 287
140 113 102 129 158 271 309 336 57 42 301 258 94 177 135 143 324 305 217 199 165 124 112 97 116 129 135 149 170 176 197 228 244 261 274 285 290 297 301 300 301 315 325 321
62 63 124 111 149 218 258 321 85 157 328 360 341 49 145 199 159 257 212 135 121 121 117 111 112 119 122 127 125 108 52 11 347 335 334 342 349 347 344 343 338 337 347 348
3 19 104 78 226 276 235 317 136 85 274 340 6 20 39 299 230 211 153 137 138 135 129 126 125 125 126 121 102 88 63 48 36 32 25 30 31 34 33 30 21 10 9 13
115 40 57 123 90 11 2 3 80 185 256 329 47 28 328 314 300 170 157 130 131 141 140 142 143 132 124 112 92 75 50 36 45 49 45 46 44 34 26 26 28 36 32 29
25 168 176 98 207 275 285 138 196 186 168 148 166 183 226 287 237 191 154 146 166 165 157 149 126 106 91 73 70 76 57 55 51 47 48 35 33 38 27 39 44 34 30 39
342 103 79 121 294 249 226 193 187 197 175 212 209 191 221 260 3 52 129 122 105 147 124 120 106 94 79 71 67 61 49 52 52 53 36 33 36 34 53 44 43 35 42 63
218 116 155 78 297 297 272 251 227 215 186 233 213 240 234 163 59 79 86 87 91 103 108 109 103 93 88 74 59 44 38 47 55 50 39 36 42 54 41 43 37 55 68 59
196 193 168 218 198 200 232 220 232 263 248 238 336 312 25 111 109 101 92 100 108 107 113 105 107 104 96 79 60 39 41 55 54 44 33 41 56 51 38 35 53 84 72 61